Other Surface Observations
Issued by NWS Jacksonville, FL

Home | Current Version | Previous Version | Text Only | Print | Product List | Glossary On
Versions: 1 2 3 4 5 6 7 8 9 10 11 12 13 14 15 16 17 18 19 20 21 22 23 24 25 26 27 28 29 30 31 32 33 34 35 36 37 38 39 40 41 42 43 44 45 46 47 48 49 50
000
SXUS52 KJAX 260410
OSOJAX
OTHER SURFACE OBSERVATIONS
NATIONAL WEATHER SERVICE JACKSONVILLE FL
1200 AM EDT SUN OCT 26 2014

FLZ020>025-030>033-035>038-040-260500-
...FLORIDA...

CITY           SKY/WX    TMP DP  RH WIND       PRES   REMARKS
CECIL FIELD    CLEAR     48  46  93 CALM      30.01F
HERLONG FIELD  NOT AVBL
FERNANDINA BCH NOT AVBL
LAKE CITY      FAIR      52  52 100 CALM      30.01F
JUNIPER SPGS   NOT AVBL
BUNNELL          N/A     54  52  92 CALM      30.01S
KEYSTONE HGTS    N/A     52  52 100 CALM      30.02F
$$

GAZ132>136-149>154-162>166-260500-
...GEORGIA...

CITY           SKY/WX    TMP DP  RH WIND       PRES   REMARKS
JESUP          FAIR      55  52  88 W5        30.01S
HOMERVILLE     FAIR      54  52  94 CALM      30.02S
SWAINSBORO     FAIR      52  50  93 MISG      30.01F
CORDELE        NOT AVBL
$$

PLEASE NOTE:  THESE OBSERVATIONS ARE NOT QUALITY CONTROLLED AND MAY
NOT BE AVAILABLE AT ALL TIMES.
$$



USA.gov is the U.S. government's official web portal to all federal, state and local government web resources and services.